| time (UTC) | temp C | wind direction | speed KPH | gust KPH | rain 1hr cm | rain 24hr cm | rain mn cm | humidity % | barometer mb |
| 20260504110454 | 15 | 116 | 6.4 | 9.7 | 0.00 | 0.00 | 0.00 | 82 | 1013.2 |
| 20260504100341 | 15 | 105 | 8.0 | 9.7 | 0.00 | 0.00 | 0.00 | 81 | 1013.7 |
| 20260504081751 | 15 | 95 | 8.0 | 11.3 | 0.00 | 0.00 | 0.00 | 78 | 1014.2 |
| 20260504081234 | 16 | 105 | 8.0 | 11.3 | 0.00 | 0.00 | 0.00 | 78 | 1014.5 |
| 20260504080719 | 16 | 104 | 6.4 | 9.7 | 0.00 | 0.00 | 0.00 | 78 | 1014.5 |
| 20260504080212 | 16 | 105 | 8.0 | 11.3 | 0.00 | 0.00 | 0.00 | 78 | 1014.5 |
| 20260504070202 | 16 | 119 | 6.4 | 8.0 | 0.00 | 0.00 | 0.00 | 76 | 1015.6 |
| 20260504050531 | 16 | 118 | 6.4 | 9.7 | 0.00 | 0.00 | 0.00 | 72 | 1016.7 |
| 20260504050020 | 16 | 117 | 6.4 | 8.0 | 0.00 | 0.00 | 0.00 | 72 | 1016.7 |
| 20260504045509 | 16 | 122 | 6.4 | 8.0 | 0.00 | 0.00 | 0.00 | 71 | 1017.1 |
| 20260504045004 | 16 | 124 | 6.4 | 8.0 | 0.00 | 0.00 | 0.00 | 71 | 1017.1 |
| 20260504044452 | 17 | 123 | 6.4 | 9.7 | 0.00 | 0.00 | 0.00 | 71 | 1017.0 |
| 20260504044207 | 17 | 119 | 6.4 | 11.3 | 0.00 | 0.00 | 0.00 | 71 | 1017.0 |
| 20260504043436 | 17 | 134 | 6.4 | 11.3 | 0.00 | 0.00 | 0.00 | 71 | 1017.0 |
| 20260504042925 | 17 | 130 | 6.4 | 9.7 | 0.00 | 0.00 | 0.00 | 70 | 1017.0 |
| 20260504042420 | 17 | 130 | 6.4 | 9.7 | 0.00 | 0.00 | 0.00 | 70 | 1017.0 |
| 20260504041909 | 17 | 126 | 6.4 | 8.0 | 0.00 | 0.00 | 0.00 | 70 | 1017.0 |
| 20260504041359 | 17 | 133 | 6.4 | 9.7 | 0.00 | 0.00 | 0.00 | 70 | 1017.0 |
| 20260504040849 | 17 | 116 | 6.4 | 9.7 | 0.00 | 0.00 | 0.00 | 69 | 1017.0 |
| 20260504040344 | 17 | 122 | 6.4 | 9.7 | 0.00 | 0.00 | 0.00 | 69 | 1017.0 |
| 20260504040055 | 17 | 120 | 6.4 | 8.0 | 0.00 | 0.00 | 0.00 | 69 | 1017.0 |
| 20260504035324 | 17 | 117 | 6.4 | 8.0 | 0.00 | 0.00 | 0.00 | 69 | 1017.0 |
| 20260504034813 | 17 | 122 | 6.4 | 8.0 | 0.00 | 0.00 | 0.00 | 68 | 1017.0 |
| 20260504034303 | 17 | 124 | 6.4 | 8.0 | 0.00 | 0.00 | 0.00 | 68 | 1017.1 |
| 20260504033750 | 17 | 125 | 4.8 | 8.0 | 0.00 | 0.00 | 0.00 | 68 | 1017.1 |
| 20260504033240 | 17 | 126 | 4.8 | 8.0 | 0.00 | 0.00 | 0.00 | 68 | 1017.1 |
| 20260504032730 | 17 | 123 | 4.8 | 8.0 | 0.00 | 0.00 | 0.00 | 68 | 1017.0 |
| 20260504032230 | 17 | 126 | 4.8 | 8.0 | 0.00 | 0.00 | 0.00 | 67 | 1017.0 |
| 20260504031727 | 18 | 122 | 6.4 | 8.0 | 0.00 | 0.00 | 0.00 | 67 | 1017.0 |
| 20260504031226 | 18 | 130 | 4.8 | 8.0 | 0.00 | 0.00 | 0.00 | 67 | 1016.9 |
| 20260504030729 | 18 | 141 | 4.8 | 8.0 | 0.00 | 0.00 | 0.00 | 66 | 1016.9 |
| 20260504030223 | 18 | 139 | 4.8 | 9.7 | 0.00 | 0.00 | 0.00 | 66 | 1016.9 |
| 20260504025720 | 18 | 131 | 4.8 | 9.7 | 0.00 | 0.00 | 0.00 | 66 | 1016.6 |
| 20260504025218 | 18 | 130 | 6.4 | 9.7 | 0.00 | 0.00 | 0.00 | 66 | 1016.6 |
| 20260504024714 | 18 | 138 | 6.4 | 9.7 | 0.00 | 0.00 | 0.00 | 66 | 1016.6 |
| 20260504024442 | 18 | 125 | 6.4 | 11.3 | 0.00 | 0.00 | 0.00 | 65 | 1016.6 |
| 20260504023715 | 18 | 132 | 6.4 | 11.3 | 0.00 | 0.00 | 0.00 | 65 | 1016.6 |
| 20260504023219 | 18 | 133 | 8.0 | 12.9 | 0.00 | 0.00 | 0.00 | 65 | 1016.6 |
| 20260504022711 | 18 | 90 | 8.0 | 12.9 | 0.00 | 0.00 | 0.00 | 64 | 1016.5 |
| 20260504022212 | 18 | 132 | 8.0 | 11.3 | 0.00 | 0.00 | 0.00 | 64 | 1016.5 |
| 20260504021704 | 18 | 128 | 6.4 | 11.3 | 0.00 | 0.00 | 0.00 | 64 | 1016.5 |
| 20260504021147 | 19 | 137 | 6.4 | 11.3 | 0.00 | 0.00 | 0.00 | 64 | 1016.5 |
| 20260504020148 | 19 | 134 | 6.4 | 11.3 | 0.00 | 0.00 | 0.00 | 63 | 1016.5 |
| 20260504015645 | 19 | 147 | 6.4 | 11.3 | 0.00 | 0.00 | 0.00 | 63 | 1016.6 |
| 20260504015144 | 19 | 120 | 6.4 | 11.3 | 0.00 | 0.00 | 0.00 | 62 | 1016.6 |
| 20260504014641 | 20 | 143 | 6.4 | 11.3 | 0.00 | 0.00 | 0.00 | 62 | 1016.6 |
| 20260504014145 | 20 | 145 | 6.4 | 11.3 | 0.00 | 0.00 | 0.00 | 61 | 1016.5 |
| 20260504013643 | 20 | 125 | 6.4 | 11.3 | 0.00 | 0.00 | 0.00 | 61 | 1016.5 |
| 20260504013131 | 20 | 141 | 6.4 | 9.7 | 0.00 | 0.00 | 0.00 | 61 | 1016.5 |
| 20260504012621 | 20 | 145 | 6.4 | 11.3 | 0.00 | 0.00 | 0.00 | 61 | 1016.5 |
| 20260504012113 | 21 | 139 | 6.4 | 11.3 | 0.00 | 0.00 | 0.00 | 61 | 1016.5 |
| 20260504011607 | 21 | 138 | 6.4 | 16.1 | 0.00 | 0.00 | 0.00 | 60 | 1016.5 |
| 20260504011057 | 21 | 149 | 8.0 | 16.1 | 0.00 | 0.00 | 0.00 | 60 | 1016.6 |
| 20260504010543 | 21 | 147 | 9.7 | 16.1 | 0.00 | 0.00 | 0.00 | 60 | 1016.6 |
| 20260504010037 | 21 | 151 | 11.3 | 16.1 | 0.00 | 0.00 | 0.00 | 59 | 1016.6 |
| 20260504005531 | 21 | 149 | 11.3 | 14.5 | 0.00 | 0.00 | 0.00 | 59 | 1016.5 |
| 20260504005022 | 22 | 152 | 11.3 | 17.7 | 0.00 | 0.00 | 0.00 | 59 | 1016.5 |
| 20260504004511 | 22 | 159 | 11.3 | 17.7 | 0.00 | 0.00 | 0.00 | 58 | 1016.5 |
| 20260504004003 | 22 | 155 | 12.9 | 17.7 | 0.00 | 0.00 | 0.00 | 58 | 1016.5 |
| 20260504003453 | 22 | 90 | 12.9 | 17.7 | 0.00 | 0.00 | 0.00 | 58 | 1016.5 |
| 20260504002957 | 22 | 90 | 12.9 | 19.3 | 0.00 | 0.00 | 0.00 | 57 | 1016.5 |
| 20260504002453 | 22 | 155 | 14.5 | 22.5 | 0.00 | 0.00 | 0.00 | 57 | 1016.5 |
| 20260504002232 | 23 | 149 | 14.5 | 22.5 | 0.00 | 0.00 | 0.00 | 57 | 1016.5 |
| 20260504001452 | 23 | 148 | 12.9 | 25.7 | 0.00 | 0.00 | 0.00 | 57 | 1016.5 |
| 20260504001009 | 23 | 117 | 14.5 | 25.7 | 0.00 | 0.00 | 0.00 | 56 | 1016.6 |
| 20260504000451 | 23 | 147 | 14.5 | 27.4 | 0.00 | 0.00 | 0.00 | 56 | 1016.6 |
| 20260504000000 | 23 | 141 | 14.5 | 29.0 | 0.00 | 0.00 | 0.00 | 56 | 1016.6 |
| 20260503235451 | 23 | 90 | 14.5 | 29.0 | 0.00 | 0.00 | 0.00 | 56 | 1016.6 |
| 20260503234956 | 24 | 122 | 17.7 | 32.2 | 0.00 | 0.00 | 0.00 | 56 | 1016.6 |
| 20260503234500 | 24 | 157 | 16.1 | 32.2 | 0.00 | 0.00 | 0.00 | 56 | 1016.6 |
| 20260503233954 | 24 | 154 | 14.5 | 25.7 | 0.00 | 0.00 | 0.00 | 55 | 1016.6 |
| 20260503233447 | 24 | 90 | 14.5 | 25.7 | 0.00 | 0.00 | 0.00 | 55 | 1016.6 |
| 20260503232934 | 25 | 90 | 14.5 | 27.4 | 0.00 | 0.00 | 0.00 | 55 | 1016.6 |
| 20260503232427 | 25 | 149 | 14.5 | 27.4 | 0.00 | 0.00 | 0.00 | 55 | 1016.6 |
| 20260503231921 | 25 | 147 | 14.5 | 27.4 | 0.00 | 0.00 | 0.00 | 55 | 1016.6 |
| 20260503231411 | 25 | 90 | 12.9 | 25.7 | 0.00 | 0.00 | 0.00 | 55 | 1016.7 |
| 20260503230904 | 25 | 151 | 14.5 | 27.4 | 0.00 | 0.00 | 0.00 | 55 | 1016.7 |
| 20260503230354 | 25 | 143 | 14.5 | 29.0 | 0.00 | 0.00 | 0.00 | 55 | 1016.7 |
| 20260503225840 | 25 | 114 | 14.5 | 29.0 | 0.00 | 0.00 | 0.00 | 55 | 1016.6 |
| 20260503225335 | 25 | 90 | 14.5 | 29.0 | 0.00 | 0.00 | 0.00 | 55 | 1016.6 |
| 20260503224824 | 25 | 128 | 14.5 | 30.6 | 0.00 | 0.00 | 0.00 | 55 | 1016.6 |
| 20260503224540 | 25 | 90 | 14.5 | 30.6 | 0.00 | 0.00 | 0.00 | 55 | 1016.8 |
| 20260503223808 | 25 | 157 | 17.7 | 30.6 | 0.00 | 0.00 | 0.00 | 55 | 1016.8 |
| 20260503223304 | 25 | 184 | 17.7 | 30.6 | 0.00 | 0.00 | 0.00 | 55 | 1016.8 |
| 20260503222801 | 25 | 90 | 16.1 | 37.0 | 0.00 | 0.00 | 0.00 | 55 | 1017.0 |
| 20260503222300 | 25 | 153 | 17.7 | 37.0 | 0.00 | 0.00 | 0.00 | 55 | 1017.0 |
| 20260503221800 | 26 | 90 | 20.9 | 37.0 | 0.00 | 0.00 | 0.00 | 55 | 1017.0 |
| 20260503221518 | 26 | 160 | 19.3 | 37.0 | 0.00 | 0.00 | 0.00 | 55 | 1017.1 |
| 20260503221022 | 26 | 167 | 17.7 | 35.4 | 0.00 | 0.00 | 0.00 | 55 | 1017.1 |
| 20260503215803 | 26 | 167 | 17.7 | 35.4 | 0.00 | 0.00 | 0.00 | 55 | 1017.4 |
| 20260503215304 | 26 | 183 | 17.7 | 29.0 | 0.00 | 0.00 | 0.00 | 55 | 1017.4 |
| 20260503215044 | 26 | 90 | 17.7 | 32.2 | 0.00 | 0.00 | 0.00 | 55 | 1017.4 |
| 20260503214253 | 26 | 90 | 16.1 | 32.2 | 0.00 | 0.00 | 0.00 | 55 | 1017.6 |
| 20260503213754 | 26 | 170 | 16.1 | 25.7 | 0.00 | 0.00 | 0.00 | 55 | 1017.6 |
| 20260503213250 | 26 | 152 | 17.7 | 37.0 | 0.00 | 0.00 | 0.00 | 55 | 1017.6 |
| 20260503212750 | 26 | 192 | 19.3 | 37.0 | 0.00 | 0.00 | 0.00 | 55 | 1017.8 |
| 20260503212253 | 26 | 186 | 19.3 | 37.0 | 0.00 | 0.00 | 0.00 | 55 | 1017.8 |
| 20260503211800 | 26 | 90 | 20.9 | 37.0 | 0.00 | 0.00 | 0.00 | 54 | 1017.8 |
| 20260503211254 | 27 | 167 | 19.3 | 30.6 | 0.00 | 0.00 | 0.00 | 54 | 1017.8 |
| 20260503211022 | 27 | 141 | 17.7 | 33.8 | 0.00 | 0.00 | 0.00 | 54 | 1017.8 |
| 20260503210233 | 27 | 196 | 17.7 | 33.8 | 0.00 | 0.00 | 0.00 | 54 | 1017.8 |
| 20260503205722 | 27 | 156 | 17.7 | 33.8 | 0.00 | 0.00 | 0.00 | 54 | 1018.0 |
| 20260503205212 | 27 | 90 | 19.3 | 35.4 | 0.00 | 0.00 | 0.00 | 54 | 1018.0 |
| 20260503204701 | 27 | 90 | 17.7 | 35.4 | 0.00 | 0.00 | 0.00 | 53 | 1018.0 |
| 20260503204156 | 28 | 90 | 14.5 | 25.7 | 0.00 | 0.00 | 0.00 | 53 | 1018.2 |
| 20260503203646 | 27 | 156 | 14.5 | 25.7 | 0.00 | 0.00 | 0.00 | 53 | 1018.2 |
| 20260503203145 | 27 | 160 | 12.9 | 25.7 | 0.00 | 0.00 | 0.00 | 53 | 1018.2 |
| 20260503202639 | 27 | 110 | 12.9 | 25.7 | 0.00 | 0.00 | 0.00 | 53 | 1018.3 |
| 20260503202145 | 27 | 160 | 12.9 | 25.7 | 0.00 | 0.00 | 0.00 | 53 | 1018.3 |
| 20260503201905 | 27 | 90 | 11.3 | 22.5 | 0.00 | 0.00 | 0.00 | 53 | 1018.3 |
| 20260503201142 | 27 | 90 | 9.7 | 17.7 | 0.00 | 0.00 | 0.00 | 53 | 1018.5 |
| 20260503200642 | 27 | 153 | 9.7 | 20.9 | 0.00 | 0.00 | 0.00 | 54 | 1018.5 |
| 20260503200144 | 27 | 90 | 9.7 | 20.9 | 0.00 | 0.00 | 0.00 | 54 | 1018.5 |
| 20260503195642 | 27 | 107 | 11.3 | 17.7 | 0.00 | 0.00 | 0.00 | 54 | 1018.8 |
| 20260503195140 | 27 | 151 | 9.7 | 24.1 | 0.00 | 0.00 | 0.00 | 54 | 1018.8 |
| 20260503194637 | 26 | 90 | 8.0 | 24.1 | 0.00 | 0.00 | 0.00 | 54 | 1018.8 |
| 20260503194127 | 26 | 131 | 8.0 | 17.7 | 0.00 | 0.00 | 0.00 | 55 | 1019.0 |
| 20260503193114 | 26 | 99 | 8.0 | 17.7 | 0.00 | 0.00 | 0.00 | 55 | 1019.0 |
| 20260503192554 | 26 | 103 | 6.4 | 16.1 | 0.00 | 0.00 | 0.00 | 55 | 1019.2 |
| 20260503192042 | 26 | 14 | 8.0 | 14.5 | 0.00 | 0.00 | 0.00 | 55 | 1019.2 |
| 20260503191532 | 26 | 66 | 6.4 | 19.3 | 0.00 | 0.00 | 0.00 | 55 | 1019.2 |
| 20260503191020 | 26 | 101 | 6.4 | 19.3 | 0.00 | 0.00 | 0.00 | 56 | 1019.4 |
| 20260503190521 | 26 | 103 | 9.7 | 19.3 | 0.00 | 0.00 | 0.00 | 56 | 1019.4 |
| 20260503190024 | 25 | 70 | 9.7 | 19.3 | 0.00 | 0.00 | 0.00 | 56 | 1019.4 |
| 20260503185522 | 26 | 101 | 8.0 | 16.1 | 0.00 | 0.00 | 0.00 | 57 | 1019.7 |
| 20260503185022 | 26 | 85 | 6.4 | 16.1 | 0.00 | 0.00 | 0.00 | 57 | 1019.7 |
| 20260503184518 | 26 | 72 | 6.4 | 16.1 | 0.00 | 0.00 | 0.00 | 57 | 1019.7 |
| 20260503184019 | 25 | 123 | 6.4 | 16.1 | 0.00 | 0.00 | 0.00 | 58 | 1019.8 |
| 20260503183519 | 25 | 55 | 8.0 | 16.1 | 0.00 | 0.00 | 0.00 | 58 | 1019.8 |
| 20260503183020 | 25 | 53 | 8.0 | 16.1 | 0.00 | 0.00 | 0.00 | 59 | 1019.8 |
| 20260503182519 | 25 | 77 | 8.0 | 17.7 | 0.00 | 0.00 | 0.00 | 59 | 1020.2 |
| 20260503182020 | 25 | 112 | 8.0 | 17.7 | 0.00 | 0.00 | 0.00 | 59 | 1020.2 |
| 20260503181520 | 25 | 103 | 9.7 | 22.5 | 0.00 | 0.00 | 0.00 | 60 | 1020.2 |
| 20260503181022 | 25 | 124 | 9.7 | 22.5 | 0.00 | 0.00 | 0.00 | 60 | 1020.2 |
| 20260503180734 | 25 | 77 | 8.0 | 19.3 | 0.00 | 0.00 | 0.00 | 61 | 1020.2 |
| 20260503180005 | 25 | 45 | 9.7 | 19.3 | 0.00 | 0.00 | 0.00 | 61 | 1020.2 |
| 20260503175504 | 25 | 90 | 9.7 | 19.3 | 0.00 | 0.00 | 0.00 | 61 | 1020.5 |
| 20260503174946 | 25 | 90 | 8.0 | 17.7 | 0.00 | 0.00 | 0.00 | 62 | 1020.5 |
| 20260503174659 | 25 | 125 | 4.8 | 16.1 | 0.00 | 0.00 | 0.00 | 63 | 1020.8 |
| 20260503173935 | 25 | 105 | 6.4 | 11.3 | 0.00 | 0.00 | 0.00 | 64 | 1020.8 |
| 20260503173430 | 25 | 95 | 8.0 | 14.5 | 0.00 | 0.00 | 0.00 | 64 | 1020.8 |
| 20260503172933 | 25 | 90 | 8.0 | 16.1 | 0.00 | 0.00 | 0.00 | 65 | 1021.1 |
| 20260503172658 | 25 | 90 | 8.0 | 16.1 | 0.00 | 0.00 | 0.00 | 65 | 1021.1 |
| 20260503171931 | 25 | 159 | 8.0 | 16.1 | 0.00 | 0.00 | 0.00 | 66 | 1021.1 |
| 20260503171659 | 25 | 123 | 8.0 | 16.1 | 0.00 | 0.00 | 0.00 | 66 | 1021.2 |
| 20260503170930 | 25 | 151 | 8.0 | 14.5 | 0.00 | 0.00 | 0.00 | 67 | 1021.2 |
| 20260503151010 | 21 | 104 | 4.8 | 9.7 | 0.00 | 0.00 | 0.00 | 82 | 1021.0 |
| 20260503150509 | 21 | 117 | 4.8 | 8.0 | 0.00 | 0.00 | 0.00 | 82 | 1021.0 |
| 20260503130928 | 15 | 11 | 4.8 | 6.4 | 0.00 | 0.00 | 0.00 | 84 | 1020.3 |
| 20260503130428 | 15 | 7 | 4.8 | 8.0 | 0.00 | 0.00 | 0.00 | 84 | 1020.3 |